GSAT0223 (GALILEO 27)

Last updated on Sun Jun 21 2026 00:02:55 GMT+0000 (Coordinated Universal Time)

1 49809U 21116A 26171.21352742 -.00000095 00000+0 00000+0 0 9997 2 49809 57.1598 341.5920 0001560 185.4323 351.7235 1.70476002 28237
UTC large
Height (km)
Speed (km/s)
/
Latitude / Longitude
Inclination (degrees)
Orbital Period (minutes)
Azimuth
Elevation
Range (km)
Doppler Factor

Next 0 passes for location: London (51.5072 / 0.1276)

No passes found over London.
GSAT0223 (GALILEO 27)